Zagreb — 9AA5910 — position and weather

sailwx.info

Track history (hours):
 
Tides and Currents Weather Stations Pressure Air Temp Water Temp Dewpoint Dewpoint Depression Visibility Wind Speed Wind Dir Waves Ship Positions

Zagreb

Last reported at 2014-Oct-22 19:33 UTC. Time now 2014-Oct-23 00:52 UTC.
Position N 54°31' E 011°28'.

Length 229 m; draft 13 m.

Type: Cargo ship. MMSI: 238249000.

Date/timePositionNaut miles runAvg speedWind from/ knotsBaromVisibWave heightAir tempDewpointWater temp
2014-Oct-22 19:33N 54°31' E 011°28'1312.6
2014-Oct-22 18:33N 54°27' E 011°48'1212.3
2014-Oct-22 17:34N 54°27' E 012°09'5911.8
2014-Oct-22 12:33N 54°58' E 013°36'1313.0
2014-Oct-22 11:33N 55°03' E 013°58'1312.6
2014-Oct-22 10:33N 55°11' E 014°14'1313.4
2014-Oct-22 09:33N 55°22' E 014°29'1312.9
2014-Oct-22 08:33N 55°29' E 014°47'1312.8
2014-Oct-22 07:33N 55°35' E 015°07'35711.9
2014-Oct-21 01:31N 59°37' E 023°16'1313.0
2014-Oct-21 00:33N 59°40' E 023°40'1313.1
2014-Oct-20 23:33N 59°44' E 024°04'1313.2
2014-Oct-20 22:34N 59°47' E 024°30'5413.2
2014-Oct-20 18:27N 59°59' E 026°15'1112.8
2014-Oct-20 17:34N 60°02' E 026°37'1312.9
2014-Oct-20 16:32N 59°59' E 027°03'  
2014-Oct-16 13:34N 59°58' E 026°57'1312.1
2014-Oct-16 12:31N 59°59' E 026°33'4912.5
2014-Oct-16 08:34N 59°47' E 024°57'1212.4
2014-Oct-16 07:33N 59°44' E 024°33'1312.5
2014-Oct-16 06:33N 59°41' E 024°08'1212.3
2014-Oct-16 05:32N 59°37' E 023°45'35512.5
2014-Oct-15 01:09N 55°40' E 015°32'913.2
2014-Oct-15 00:28N 55°36' E 015°18'1213.2
2014-Oct-14 23:34N 55°30' E 014°59'1313.3
2014-Oct-14 22:33N 55°24' E 014°39'1313.3
2014-Oct-14 21:34N 55°13' E 014°24'3812.7
2014-Oct-14 18:33N 55°11' E 013°18'1313.0
2014-Oct-14 17:33N 55°14' E 012°56'1212.1
2014-Oct-14 16:33N 55°20' E 012°38'1313.3
2014-Oct-14 15:34N 55°33' E 012°42'1110.8
2014-Oct-14 14:33N 55°44' E 012°41'1212.4
2014-Oct-14 13:33N 55°56' E 012°39'1111.4
2014-Oct-14 12:33N 56°07' E 012°31'1313.5
2014-Oct-14 11:33N 56°14' E 012°12'1613.0
2014-Oct-14 10:19N 56°29' E 011°58'1114.2
2014-Oct-14 09:33N 56°39' E 011°54'1413.8
2014-Oct-14 08:33N 56°53' E 011°47'1513.9
2014-Oct-14 07:30N 57°06' E 011°38'1313.7
2014-Oct-14 06:33N 57°18' E 011°29'1413.5
2014-Oct-14 05:33N 57°30' E 011°18'1313.0
2014-Oct-14 04:33N 57°39' E 011°00'1312.7
2014-Oct-14 03:33N 57°47' E 010°41'1313.3
2014-Oct-14 02:33N 57°46' E 010°17'1312.9
2014-Oct-14 01:32N 57°45' E 009°52'36112.9
2014-Oct-12 21:32N 54°25' E 000°53'1313.2
2014-Oct-12 20:32N 54°12' E 000°48'  
Track history (hours):
 
Tides and Currents Weather Stations Pressure Air Temp Water Temp Dewpoint Dewpoint Depression Visibility Wind Speed Wind Dir Waves Ship Positions

Zagreb

Last reported at 2014-Oct-22 19:33 UTC. Time now 2014-Oct-23 00:52 UTC.
Position N 54°31' E 011°28'.

Length 229 m; draft 13 m.

Type: Cargo ship. MMSI: 238249000.

Date/timePositionNaut miles runAvg speedWind from/ knotsBaromVisibWave heightAir tempDewpointWater temp
2014-Oct-22 19:33N 54°31' E 011°28'1312.6
2014-Oct-22 18:33N 54°27' E 011°48'1212.3
2014-Oct-22 17:34N 54°27' E 012°09'5911.8
2014-Oct-22 12:33N 54°58' E 013°36'1313.0
2014-Oct-22 11:33N 55°03' E 013°58'1312.6
2014-Oct-22 10:33N 55°11' E 014°14'1313.4
2014-Oct-22 09:33N 55°22' E 014°29'1312.9
2014-Oct-22 08:33N 55°29' E 014°47'1312.8
2014-Oct-22 07:33N 55°35' E 015°07'35711.9
2014-Oct-21 01:31N 59°37' E 023°16'1313.0
2014-Oct-21 00:33N 59°40' E 023°40'1313.1
2014-Oct-20 23:33N 59°44' E 024°04'1313.2
2014-Oct-20 22:34N 59°47' E 024°30'5413.2
2014-Oct-20 18:27N 59°59' E 026°15'1112.8
2014-Oct-20 17:34N 60°02' E 026°37'1312.9
2014-Oct-20 16:32N 59°59' E 027°03'  
2014-Oct-16 13:34N 59°58' E 026°57'1312.1
2014-Oct-16 12:31N 59°59' E 026°33'4912.5
2014-Oct-16 08:34N 59°47' E 024°57'1212.4
2014-Oct-16 07:33N 59°44' E 024°33'1312.5
2014-Oct-16 06:33N 59°41' E 024°08'1212.3
2014-Oct-16 05:32N 59°37' E 023°45'35512.5
2014-Oct-15 01:09N 55°40' E 015°32'913.2
2014-Oct-15 00:28N 55°36' E 015°18'1213.2
2014-Oct-14 23:34N 55°30' E 014°59'1313.3
2014-Oct-14 22:33N 55°24' E 014°39'1313.3
2014-Oct-14 21:34N 55°13' E 014°24'3812.7
2014-Oct-14 18:33N 55°11' E 013°18'1313.0
2014-Oct-14 17:33N 55°14' E 012°56'1212.1
2014-Oct-14 16:33N 55°20' E 012°38'1313.3
2014-Oct-14 15:34N 55°33' E 012°42'1110.8
2014-Oct-14 14:33N 55°44' E 012°41'1212.4
2014-Oct-14 13:33N 55°56' E 012°39'1111.4
2014-Oct-14 12:33N 56°07' E 012°31'1313.5
2014-Oct-14 11:33N 56°14' E 012°12'1613.0
2014-Oct-14 10:19N 56°29' E 011°58'1114.2
2014-Oct-14 09:33N 56°39' E 011°54'1413.8
2014-Oct-14 08:33N 56°53' E 011°47'1513.9
2014-Oct-14 07:30N 57°06' E 011°38'1313.7
2014-Oct-14 06:33N 57°18' E 011°29'1413.5
2014-Oct-14 05:33N 57°30' E 011°18'1313.0
2014-Oct-14 04:33N 57°39' E 011°00'1312.7
2014-Oct-14 03:33N 57°47' E 010°41'1313.3
2014-Oct-14 02:33N 57°46' E 010°17'1312.9
2014-Oct-14 01:32N 57°45' E 009°52'36112.9
2014-Oct-12 21:32N 54°25' E 000°53'1313.2
2014-Oct-12 20:32N 54°12' E 000°48'  

Dump ship's entire track history